Regional Weather Roundup
Issued by NWS

Home | Current Version | Previous Version | Text Only | Print | Product List | Glossary On
Versions: 1 2 3 4 5 6 7 8 9 10 11 12 13 14 15 16 17 18 19 20 21 22 23 24 25 26 27 28 29 30 31 32 33 34 35 36 37 38 39 40 41 42 43 44 45 46 47 48 49 50
210
ASUS44 KJAN 261810
RWRMS

MISSISSIPPI HOURLY WEATHER ROUNDUP
NATIONAL WEATHER SERVICE JACKSON MS
1200 PM CST WED NOV 26 2014

NOTE: "FAIR: INDICATES FEW OR NO CLOUDS BELOW 12,000 FEET WITH NO
SIGNIFICANT WEATHER AND/OR OBSTRUCTIONS TO VISIBILITY.

MSZ001>002-007>008-010>013-018>021-025>028-034>036-261900-
NORTHWEST MISSISSIPPI

CITY           SKY/WX    TMP DP  RH WIND       PRES   REMARKS
CLARKSDALE     FAIR      52  39  62 S13       30.01F
CLEVELAND      MOCLDY    53  44  71 S14       30.03F
GREENWOOD      FAIR      60  31  33 S20G28    30.06F
6HR MIN TEMP:  26; 6HR MAX TEMP:  60;

GREENVILLE     FAIR      57  36  45 S15       30.03F
6HR MIN TEMP:  32; 6HR MAX TEMP:  59;

GRENADA        FAIR      57  32  38 S9        30.07F
OLIVE BRANCH   CLOUDY    46  32  57 S15       30.02F
OXFORD         FAIR      48  28  46 SE8       30.07F
TUNICA         FAIR      48  36  61 S15       30.01F
$$

MSZ003>006-009-014>017-022>024-029>033-037>039-261900-
NORTHEAST MISSISSIPPI

CITY           SKY/WX    TMP DP  RH WIND       PRES   REMARKS
COLUMBUS AFB   FAIR      53  25  34 SE7       30.12F
6HR MIN TEMP:  24; 6HR MAX TEMP:  53;

CORINTH        FAIR      48  27  43 SE14G20   30.07F
GOLDN TRIANGLE MOSUNNY   54  30  40 S10       30.13F
STARKVILLE     FAIR      55  28  35 S7        30.12F
TUPELO         FAIR      49  29  46 S13       30.09F
6HR MIN TEMP:  27; 6HR MAX TEMP:  49;

$$

MSZ040-058-261900-
CENTRAL MISSISSIPPI

CITY           SKY/WX    TMP DP  RH WIND       PRES   REMARKS
JACKSON INTL   FAIR      62  32  32 SW14      30.13F
6HR MIN TEMP:  29; 6HR MAX TEMP:  62;

JACKSON HAWKNS FAIR      62  31  31 SW15      30.13F
6HR MIN TEMP:  29; 6HR MAX TEMP:  62;

MERIDIAN KEY   FAIR      58  25  28 S13G20    30.15F
6HR MIN TEMP:  27; 6HR MAX TEMP:  58;

MERIDIAN NAS   FAIR      58  24  27 S12       30.16F
6HR MIN TEMP:  28; 6HR MAX TEMP:  58;

RAYMOND        FAIR      63  59  88 W14G24    30.12F
VICKSBURG      FAIR      64  34  32 SW9G28    30.11F
6HR MIN TEMP:  28; 6HR MAX TEMP:  64;

$$

MSZ059>079-261900-
SOUTH MISSISSIPPI

CITY           SKY/WX    TMP DP  RH WIND       PRES   REMARKS
BROOKHAVEN     FAIR      63  32  31 SW13G20   30.18F
HATTIESBURG    FAIR      62  28  27 MISG      30.20F
6HR MIN TEMP:  30; 6HR MAX TEMP:  62;

MCCOMB         FAIR      61  35  37 SW10G20   30.19F
6HR MIN TEMP:  29; 6HR MAX TEMP:  61;

NATCHEZ        FAIR      63  37  39 SW16G25   30.16F
6HR MIN TEMP:  30; 6HR MAX TEMP:  63;

PINE BELT      FAIR      59  30  33 SW8       30.20F
6HR MIN TEMP:  28; 6HR MAX TEMP:  59;

$$

MSZ080>082-261900-
COASTAL MISSISSIPPI

CITY           SKY/WX    TMP DP  RH WIND       PRES   REMARKS
BAY ST LOUIS   SUNNY     61  25  25 SW6       30.23F
BILOXI         FAIR      55  25  32 S8        30.23F
6HR MIN TEMP:  38; 6HR MAX TEMP:  56;

PASCAGOULA     FAIR      62  27  26 W8        30.22F
6HR MIN TEMP:  29; 6HR MAX TEMP:  62;

GULFPORT       FAIR      56  28  34 S8        30.23F
6HR MIN TEMP:  33; 6HR MAX TEMP:  56;

$$



USA.gov is the U.S. government's official web portal to all federal, state and local government web resources and services.